QPF
0.00 0.00 0.00 0.00 0.00 0.00 0.00 0.00 0.00 0.00 0.00 0.00 0.00 0.00 0.01 0.01 0.03 0.03 0.03 0.03 0.03 0.02 0.01 0.02 0.01 0.01 0.02 0.02 0.02 0.02 0.03 0.05 0.09 0.09 0.07 0.05 0.04 0.03 0.02 0.02 0.02 0.02 0.01 0.02
0.00 0.00 0.00 0.00 0.00 0.00 0.00 0.00 0.00 0.00 0.00 0.00 0.00 0.00 0.01 0.01 0.01 0.01 0.02 0.03 0.02 0.02 0.02 0.02 0.01 0.01 0.01 0.01 0.02 0.05 0.05 0.07 0.05 0.07 0.07 0.05 0.03 0.02 0.01 0.01 0.01 0.01 0.01 0.01
0.00 0.00 0.00 0.00 0.00 0.00 0.00 0.00 0.00 0.00 0.00 0.00 0.01 0.01 0.00 0.00 0.00 0.01 0.02 0.02 0.03 0.03 0.03 0.03 0.02 0.02 0.02 0.03 0.04 0.10 0.07 0.04 0.04 0.04 0.04 0.03 0.02 0.02 0.02 0.02 0.01 0.01 0.00 0.00
0.00 0.00 0.00 0.00 0.01 0.00 0.00 0.00 0.00 0.00 0.00 0.00 0.00 0.00 0.00 0.00 0.00 0.01 0.02 0.03 0.05 0.05 0.05 0.05 0.05 0.04 0.03 0.02 0.02 0.03 0.03 0.03 0.05 0.04 0.03 0.03 0.02 0.02 0.02 0.01 0.01 0.00 0.00 0.00
0.00 0.00 0.00 0.01 0.01 0.00 0.00 0.01 0.01 0.01 0.01 0.01 0.00 0.01 0.01 0.01 0.01 0.01 0.05 0.09 0.09 0.08 0.09 0.12 0.13 0.11 0.06 0.03 0.03 0.03 0.03 0.03 0.05 0.04 0.03 0.02 0.02 0.02 0.01 0.01 0.01 0.00 0.00 0.00
0.00 0.00 0.00 0.01 0.01 0.00 0.00 0.01 0.01 0.01 0.01 0.02 0.01 0.01 0.01 0.01 0.01 0.02 0.06 0.12 0.12 0.12 0.12 0.15 0.17 0.14 0.11 0.05 0.04 0.04 0.04 0.04 0.04 0.03 0.03 0.03 0.02 0.02 0.01 0.01 0.01 0.01 0.01 0.00
0.00 0.00 0.00 0.01 0.01 0.00 0.01 0.01 0.01 0.01 0.01 0.01 0.01 0.01 0.01 0.02 0.02 0.04 0.05 0.05 0.06 0.06 0.05 0.06 0.06 0.05 0.05 0.04 0.03 0.03 0.04 0.04 0.03 0.02 0.02 0.02 0.02 0.02 0.02 0.02 0.01 0.01 0.01 0.01
0.00 0.00 0.00 0.00 0.01 0.00 0.01 0.01 0.01 0.01 0.01 0.01 0.01 0.01 0.02 0.03 0.04 0.04 0.05 0.06 0.07 0.05 0.05 0.05 0.05 0.06 0.05 0.04 0.03 0.02 0.02 0.02 0.02 0.02 0.02 0.02 0.02 0.02 0.02 0.01 0.01 0.01 0.01 0.01
0.00 0.00 0.01 0.01 0.01 0.01 0.01 0.01 0.01 0.01 0.02 0.02 0.02 0.04 0.04 0.05 0.04 0.04 0.05 0.06 0.10 0.10 0.08 0.06 0.07 0.08 0.07 0.05 0.03 0.02 0.02 0.01 0.02 0.03 0.02 0.02 0.01 0.02 0.02 0.02 0.02 0.01 0.01 0.00
0.01 0.01 0.02 0.01 0.01 0.01 0.02 0.02 0.01 0.02 0.03 0.03 0.04 0.06 0.06 0.06 0.05 0.05 0.05 0.05 0.07 0.08 0.08 0.07 0.06 0.07 0.06 0.04 0.03 0.03 0.03 0.03 0.03 0.02 0.02 0.02 0.02 0.02 0.03 0.02 0.02 0.02 0.01 0.00
0.02 0.02 0.02 0.02 0.02 0.03 0.04 0.02 0.02 0.02 0.03 0.03 0.03 0.04 0.04 0.04 0.03 0.03 0.04 0.05 0.05 0.05 0.06 0.06 0.06 0.06 0.06 0.05 0.04 0.03 0.03 0.02 0.02 0.01 0.01 0.01 0.02 0.02 0.02 0.02 0.01 0.01 0.00 0.00
0.03 0.02 0.02 0.02 0.02 0.04 0.06 0.04 0.03 0.03 0.03 0.04 0.04 0.04 0.04 0.04 0.04 0.04 0.04 0.04 0.04 0.05 0.04 0.03 0.04 0.05 0.06 0.06 0.04 0.03 0.02 0.02 0.02 0.01 0.01 0.01 0.01 0.01 0.01 0.01 0.01 0.01 0.00 0.00
0.03 0.02 0.03 0.02 0.02 0.03 0.06 0.05 0.05 0.04 0.04 0.04 0.04 0.04 0.04 0.04 0.03 0.03 0.04 0.05 0.05 0.06 0.05 0.04 0.04 0.04 0.06 0.06 0.05 0.02 0.02 0.01 0.02 0.02 0.02 0.02 0.01 0.01 0.01 0.01 0.01 0.01 0.01 0.00
0.03 0.03 0.03 0.03 0.02 0.03 0.06 0.08 0.06 0.05 0.05 0.04 0.04 0.04 0.04 0.03 0.04 0.04 0.04 0.05 0.05 0.06 0.07 0.06 0.05 0.05 0.05 0.05 0.03 0.01 0.01 0.02 0.02 0.01 0.01 0.01 0.01 0.01 0.01 0.01 0.01 0.01 0.01 0.00
0.03 0.03 0.02 0.03 0.04 0.04 0.06 0.08 0.08 0.08 0.08 0.09 0.08 0.07 0.06 0.05 0.04 0.04 0.04 0.04 0.05 0.07 0.07 0.07 0.06 0.05 0.04 0.03 0.02 0.01 0.01 0.01 0.01 0.01 0.01 0.01 0.01 0.01 0.01 0.01 0.01 0.01 0.01 0.01
0.03 0.02 0.03 0.04 0.05 0.07 0.08 0.07 0.07 0.07 0.08 0.09 0.10 0.09 0.08 0.07 0.05 0.04 0.04 0.04 0.05 0.05 0.05 0.05 0.05 0.05 0.04 0.02 0.01 0.01 0.01 0.02 0.01 0.01 0.01 0.01 0.01 0.02 0.02 0.02 0.02 0.01 0.01 0.01
0.04 0.03 0.03 0.04 0.04 0.05 0.07 0.08 0.11 0.10 0.08 0.09 0.09 0.08 0.06 0.05 0.04 0.04 0.04 0.04 0.04 0.04 0.03 0.03 0.04 0.04 0.03 0.02 0.01 0.01 0.01 0.02 0.02 0.02 0.01 0.01 0.01 0.01 0.01 0.01 0.01 0.01 0.01 0.01
0.05 0.04 0.03 0.03 0.03 0.04 0.05 0.04 0.06 0.08 0.09 0.09 0.09 0.07 0.05 0.05 0.04 0.03 0.02 0.03 0.04 0.03 0.03 0.03 0.03 0.03 0.02 0.02 0.02 0.01 0.01 0.02 0.01 0.01 0.01 0.01 0.01 0.01 0.01 0.01 0.01 0.01 0.01 0.01
0.03 0.03 0.02 0.02 0.02 0.04 0.05 0.05 0.06 0.07 0.07 0.06 0.05 0.04 0.04 0.04 0.03 0.03 0.02 0.03 0.04 0.04 0.03 0.03 0.03 0.02 0.01 0.01 0.01 0.01 0.01 0.01 0.01 0.01 0.01 0.02 0.01 0.01 0.00 0.00 0.00 0.01 0.01 0.01
0.02 0.01 0.02 0.01 0.02 0.03 0.04 0.04 0.05 0.06 0.06 0.04 0.03 0.03 0.03 0.03 0.03 0.03 0.02 0.03 0.03 0.04 0.04 0.03 0.03 0.02 0.02 0.02 0.02 0.01 0.01 0.01 0.01 0.01 0.01 0.01 0.00 0.00 0.00 0.00 0.00 0.00 0.01 0.01
0.01 0.01 0.01 0.01 0.01 0.01 0.02 0.03 0.03 0.04 0.04 0.04 0.03 0.03 0.03 0.03 0.03 0.03 0.02 0.02 0.02 0.03 0.03 0.03 0.02 0.03 0.03 0.02 0.02 0.02 0.02 0.01 0.01 0.01 0.00 0.00 0.00 0.00 0.00 0.00 0.00 0.01 0.01 0.01
0.01 0.00 0.00 0.00 0.01 0.02 0.02 0.02 0.03 0.03 0.03 0.03 0.03 0.03 0.03 0.03 0.03 0.03 0.03 0.02 0.02 0.03 0.02 0.02 0.02 0.03 0.03 0.02 0.01 0.01 0.02 0.02 0.02 0.01 0.00 0.00 0.00 0.00 0.00 0.00 0.00 0.01 0.01 0.01
0.01 0.01 0.01 0.01 0.02 0.03 0.03 0.03 0.03 0.03 0.03 0.03 0.03 0.03 0.03 0.03 0.03 0.03 0.02 0.02 0.02 0.03 0.02 0.03 0.03 0.04 0.03 0.02 0.01 0.01 0.01 0.01 0.01 0.01 0.01 0.01 0.00 0.00 0.01 0.01 0.01 0.01 0.01 0.01
0.01 0.01 0.01 0.01 0.02 0.05 0.04 0.03 0.03 0.03 0.03 0.03 0.04 0.04 0.04 0.03 0.02 0.02 0.02 0.02 0.03 0.04 0.03 0.04 0.04 0.03 0.03 0.02 0.02 0.02 0.02 0.01 0.01 0.01 0.01 0.01 0.01 0.01 0.01 0.02 0.02 0.02 0.01 0.01
0.01 0.01 0.01 0.01 0.02 0.03 0.03 0.03 0.04 0.04 0.04 0.04 0.04 0.03 0.03 0.03 0.03 0.03 0.03 0.03 0.04 0.05 0.04 0.05 0.05 0.04 0.03 0.02 0.02 0.03 0.02 0.01 0.01 0.01 0.01 0.01 0.01 0.01 0.01 0.01 0.01 0.01 0.01 0.01
0.03 0.02 0.02 0.01 0.01 0.02 0.02 0.03 0.04 0.05 0.05 0.05 0.04 0.04 0.04 0.03 0.02 0.03 0.02 0.02 0.03 0.04 0.03 0.03 0.03 0.02 0.01 0.02 0.02 0.02 0.02 0.01 0.01 0.01 0.01 0.01 0.01 0.01 0.00 0.00 0.00 0.00 0.00 0.00
0.02 0.03 0.02 0.02 0.02 0.03 0.03 0.03 0.03 0.04 0.05 0.05 0.04 0.04 0.05 0.04 0.03 0.02 0.01 0.01 0.01 0.03 0.04 0.03 0.02 0.02 0.01 0.01 0.01 0.01 0.01 0.01 0.01 0.01 0.01 0.01 0.00 0.00 0.00 0.00 0.00 0.00 0.00 0.00
MSLP
1014.71 1015.04 1015.42 1015.82 1016.19 1016.47 1016.60 1016.56 1016.32 1015.90 1015.36 1014.77 1014.21 1013.76 1013.47 1013.37 1013.44 1013.65 1013.94 1014.25 1014.51 1014.69 1014.79 1014.81 1014.79 1014.79 1014.84 1014.98 1015.23 1015.57 1015.98 1016.43 1016.86 1017.23 1017.52 1017.72 1017.82 1017.84 1017.79 1017.71 1017.60 1017.47 1017.32 1017.16
1014.77 1014.99 1015.19 1015.36 1015.47 1015.48 1015.38 1015.15 1014.81 1014.39 1013.93 1013.49 1013.13 1012.89 1012.80 1012.86 1013.05 1013.32 1013.61 1013.89 1014.11 1014.26 1014.34 1014.37 1014.40 1014.46 1014.60 1014.84 1015.18 1015.61 1016.08 1016.57 1017.03 1017.43 1017.74 1017.97 1018.11 1018.19 1018.21 1018.19 1018.15 1018.08 1018.00 1017.88
1014.91 1015.00 1015.04 1014.99 1014.86 1014.64 1014.33 1013.95 1013.52 1013.08 1012.68 1012.35 1012.14 1012.07 1012.12 1012.29 1012.53 1012.82 1013.10 1013.35 1013.53 1013.65 1013.73 1013.80 1013.90 1014.05 1014.30 1014.64 1015.07 1015.57 1016.09 1016.61 1017.09 1017.50 1017.83 1018.09 1018.27 1018.39 1018.48 1018.54 1018.58 1018.59 1018.58 1018.54
1015.13 1015.10 1014.97 1014.74 1014.41 1013.99 1013.51 1013.01 1012.51 1012.06 1011.69 1011.45 1011.33 1011.35 1011.48 1011.70 1011.96 1012.24 1012.48 1012.69 1012.84 1012.95 1013.05 1013.17 1013.35 1013.61 1013.95 1014.39 1014.90 1015.46 1016.02 1016.55 1017.03 1017.44 1017.78 1018.05 1018.26 1018.44 1018.60 1018.73 1018.86 1018.96 1019.03 1019.06
1015.42 1015.25 1014.97 1014.58 1014.09 1013.53 1012.94 1012.34 1011.80 1011.35 1011.01 1010.81 1010.75 1010.81 1010.97 1011.20 1011.44 1011.68 1011.88 1012.04 1012.17 1012.28 1012.41 1012.59 1012.84 1013.18 1013.62 1014.14 1014.71 1015.30 1015.88 1016.41 1016.88 1017.28 1017.61 1017.89 1018.13 1018.35 1018.57 1018.78 1018.98 1019.17 1019.31 1019.41
1015.70 1015.40 1014.99 1014.48 1013.88 1013.22 1012.56 1011.93 1011.38 1010.93 1010.62 1010.46 1010.43 1010.52 1010.68 1010.88 1011.09 1011.27 1011.42 1011.54 1011.64 1011.75 1011.90 1012.12 1012.44 1012.85 1013.34 1013.91 1014.52 1015.12 1015.69 1016.21 1016.66 1017.04 1017.37 1017.65 1017.92 1018.18 1018.45 1018.73 1019.00 1019.24 1019.45 1019.61
1015.91 1015.49 1014.98 1014.38 1013.71 1013.02 1012.35 1011.72 1011.20 1010.80 1010.53 1010.41 1010.41 1010.51 1010.66 1010.83 1010.99 1011.12 1011.22 1011.29 1011.36 1011.46 1011.62 1011.86 1012.21 1012.64 1013.17 1013.75 1014.36 1014.95 1015.51 1016.00 1016.43 1016.79 1017.11 1017.40 1017.69 1017.99 1018.31 1018.63 1018.95 1019.24 1019.49 1019.69
1015.99 1015.48 1014.89 1014.24 1013.57 1012.89 1012.25 1011.69 1011.24 1010.91 1010.72 1010.65 1010.69 1010.80 1010.95 1011.09 1011.21 1011.30 1011.34 1011.37 1011.40 1011.47 1011.61 1011.85 1012.18 1012.61 1013.12 1013.68 1014.26 1014.83 1015.35 1015.82 1016.22 1016.58 1016.90 1017.21 1017.52 1017.85 1018.20 1018.55 1018.90 1019.22 1019.49 1019.71
1015.92 1015.34 1014.72 1014.07 1013.42 1012.81 1012.26 1011.79 1011.45 1011.23 1011.13 1011.14 1011.24 1011.38 1011.53 1011.67 1011.76 1011.80 1011.80 1011.78 1011.76 1011.79 1011.88 1012.07 1012.35 1012.74 1013.20 1013.71 1014.24 1014.76 1015.25 1015.70 1016.09 1016.45 1016.78 1017.11 1017.45 1017.80 1018.17 1018.55 1018.90 1019.23 1019.51 1019.72
1015.72 1015.11 1014.49 1013.88 1013.30 1012.78 1012.35 1012.01 1011.80 1011.70 1011.71 1011.82 1011.98 1012.17 1012.34 1012.48 1012.55 1012.56 1012.52 1012.44 1012.37 1012.34 1012.36 1012.48 1012.69 1013.00 1013.38 1013.83 1014.30 1014.77 1015.23 1015.65 1016.05 1016.42 1016.78 1017.14 1017.50 1017.87 1018.26 1018.63 1018.99 1019.30 1019.57 1019.77
1015.43 1014.83 1014.25 1013.71 1013.22 1012.82 1012.51 1012.32 1012.24 1012.26 1012.39 1012.58 1012.82 1013.05 1013.25 1013.39 1013.46 1013.45 1013.37 1013.25 1013.12 1013.01 1012.97 1013.00 1013.12 1013.34 1013.64 1014.00 1014.41 1014.84 1015.27 1015.69 1016.10 1016.49 1016.88 1017.27 1017.66 1018.05 1018.44 1018.81 1019.15 1019.44 1019.68 1019.86
1015.15 1014.59 1014.07 1013.61 1013.23 1012.94 1012.75 1012.68 1012.71 1012.84 1013.05 1013.32 1013.61 1013.88 1014.10 1014.25 1014.31 1014.28 1014.18 1014.02 1013.85 1013.68 1013.56 1013.51 1013.55 1013.68 1013.90 1014.20 1014.55 1014.94 1015.36 1015.78 1016.21 1016.64 1017.06 1017.48 1017.89 1018.29 1018.68 1019.03 1019.34 1019.61 1019.82 1019.99
1014.93 1014.44 1014.00 1013.62 1013.33 1013.14 1013.04 1013.04 1013.15 1013.34 1013.60 1013.91 1014.22 1014.50 1014.74 1014.89 1014.95 1014.92 1014.80 1014.62 1014.42 1014.21 1014.04 1013.93 1013.90 1013.96 1014.12 1014.36 1014.68 1015.05 1015.46 1015.89 1016.35 1016.80 1017.26 1017.70 1018.13 1018.54 1018.91 1019.25 1019.53 1019.77 1019.96 1020.10
1014.83 1014.41 1014.04 1013.74 1013.51 1013.37 1013.32 1013.36 1013.49 1013.69 1013.96 1014.25 1014.56 1014.83 1015.06 1015.20 1015.26 1015.23 1015.12 1014.94 1014.73 1014.52 1014.32 1014.18 1014.12 1014.14 1014.26 1014.47 1014.76 1015.12 1015.53 1015.99 1016.46 1016.94 1017.42 1017.88 1018.32 1018.72 1019.09 1019.40 1019.66 1019.87 1020.04 1020.17
1014.84 1014.48 1014.18 1013.92 1013.73 1013.61 1013.56 1013.59 1013.69 1013.85 1014.07 1014.32 1014.58 1014.82 1015.02 1015.15 1015.22 1015.20 1015.11 1014.96 1014.77 1014.57 1014.39 1014.26 1014.19 1014.21 1014.31 1014.51 1014.80 1015.15 1015.57 1016.03 1016.52 1017.02 1017.51 1017.98 1018.42 1018.82 1019.16 1019.46 1019.70 1019.89 1020.04 1020.16
1014.92 1014.61 1014.34 1014.11 1013.92 1013.78 1013.69 1013.66 1013.70 1013.79 1013.93 1014.11 1014.30 1014.49 1014.66 1014.78 1014.85 1014.86 1014.81 1014.71 1014.57 1014.43 1014.29 1014.19 1014.15 1014.19 1014.30 1014.50 1014.79 1015.15 1015.57 1016.03 1016.52 1017.02 1017.51 1017.98 1018.41 1018.80 1019.13 1019.41 1019.64 1019.82 1019.96 1020.08
1014.97 1014.69 1014.44 1014.20 1013.99 1013.81 1013.67 1013.57 1013.52 1013.52 1013.57 1013.67 1013.80 1013.94 1014.08 1014.20 1014.29 1014.34 1014.34 1014.30 1014.24 1014.17 1014.10 1014.06 1014.07 1014.14 1014.27 1014.49 1014.78 1015.13 1015.55 1016.00 1016.48 1016.97 1017.45 1017.90 1018.32 1018.69 1019.01 1019.27 1019.49 1019.67 1019.81 1019.94
1014.92 1014.65 1014.39 1014.13 1013.89 1013.66 1013.46 1013.29 1013.16 1013.09 1013.06 1013.10 1013.17 1013.28 1013.41 1013.54 1013.66 1013.76 1013.84 1013.88 1013.90 1013.91 1013.93 1013.96 1014.02 1014.13 1014.29 1014.52 1014.81 1015.15 1015.54 1015.97 1016.43 1016.89 1017.34 1017.77 1018.17 1018.52 1018.83 1019.09 1019.31 1019.49 1019.64 1019.76
1014.67 1014.39 1014.11 1013.83 1013.56 1013.29 1013.05 1012.83 1012.66 1012.54 1012.48 1012.48 1012.54 1012.64 1012.79 1012.95 1013.12 1013.29 1013.44 1013.57 1013.68 1013.78 1013.87 1013.97 1014.08 1014.23 1014.41 1014.64 1014.91 1015.24 1015.60 1015.99 1016.41 1016.83 1017.24 1017.64 1018.01 1018.35 1018.65 1018.90 1019.12 1019.31 1019.46 1019.60
1014.19 1013.89 1013.59 1013.30 1013.01 1012.73 1012.47 1012.25 1012.07 1011.95 1011.89 1011.91 1011.99 1012.13 1012.31 1012.53 1012.76 1013.00 1013.23 1013.45 1013.64 1013.82 1013.98 1014.13 1014.29 1014.46 1014.65 1014.87 1015.13 1015.42 1015.74 1016.08 1016.45 1016.82 1017.19 1017.55 1017.89 1018.20 1018.49 1018.74 1018.96 1019.15 1019.32 1019.46
1013.50 1013.18 1012.87 1012.57 1012.28 1012.02 1011.78 1011.59 1011.45 1011.37 1011.37 1011.43 1011.57 1011.77 1012.03 1012.31 1012.62 1012.94 1013.24 1013.53 1013.79 1014.03 1014.25 1014.44 1014.63 1014.81 1015.00 1015.21 1015.44 1015.69 1015.96 1016.25 1016.55 1016.87 1017.19 1017.51 1017.81 1018.10 1018.37 1018.61 1018.83 1019.02 1019.19 1019.33
1012.69 1012.36 1012.04 1011.75 1011.48 1011.26 1011.07 1010.94 1010.87 1010.87 1010.94 1011.09 1011.31 1011.60 1011.93 1012.29 1012.67 1013.05 1013.43 1013.78 1014.09 1014.38 1014.63 1014.85 1015.05 1015.24 1015.42 1015.61 1015.80 1016.00 1016.22 1016.46 1016.71 1016.97 1017.23 1017.50 1017.77 1018.02 1018.27 1018.50 1018.70 1018.89 1019.05 1019.19
1011.89 1011.54 1011.23 1010.96 1010.73 1010.55 1010.43 1010.37 1010.39 1010.48 1010.65 1010.89 1011.20 1011.56 1011.97 1012.40 1012.85 1013.29 1013.71 1014.10 1014.45 1014.77 1015.04 1015.28 1015.48 1015.67 1015.83 1015.99 1016.15 1016.31 1016.48 1016.67 1016.86 1017.06 1017.28 1017.50 1017.72 1017.94 1018.16 1018.36 1018.55 1018.73 1018.88 1019.01
1011.22 1010.88 1010.58 1010.33 1010.14 1010.01 1009.96 1009.97 1010.07 1010.25 1010.50 1010.82 1011.21 1011.64 1012.11 1012.59 1013.08 1013.55 1014.00 1014.41 1014.79 1015.11 1015.39 1015.63 1015.84 1016.01 1016.16 1016.30 1016.43 1016.56 1016.68 1016.82 1016.96 1017.12 1017.28 1017.46 1017.63 1017.82 1018.00 1018.18 1018.35 1018.50 1018.64 1018.76
1010.82 1010.50 1010.22 1010.00 1009.84 1009.75 1009.74 1009.82 1009.97 1010.21 1010.52 1010.89 1011.33 1011.80 1012.30 1012.81 1013.31 1013.79 1014.24 1014.66 1015.03 1015.35 1015.63 1015.87 1016.06 1016.23 1016.37 1016.48 1016.59 1016.69 1016.78 1016.88 1016.98 1017.09 1017.21 1017.34 1017.48 1017.63 1017.78 1017.92 1018.07 1018.21 1018.33 1018.44
1010.77 1010.47 1010.22 1010.02 1009.88 1009.83 1009.85 1009.95 1010.13 1010.39 1010.72 1011.11 1011.56 1012.03 1012.52 1013.02 1013.51 1013.98 1014.41 1014.81 1015.16 1015.46 1015.73 1015.95 1016.14 1016.29 1016.41 1016.52 1016.61 1016.68 1016.76 1016.83 1016.90 1016.97 1017.06 1017.16 1017.26 1017.37 1017.49 1017.62 1017.74 1017.86 1017.97 1018.07
1011.08 1010.82 1010.59 1010.41 1010.29 1010.24 1010.27 1010.37 1010.54 1010.79 1011.11 1011.48 1011.90 1012.34 1012.80 1013.26 1013.70 1014.13 1014.52 1014.88 1015.20 1015.47 1015.71 1015.92 1016.08 1016.22 1016.34 1016.43 1016.50 1016.57 1016.63 1016.68 1016.73 1016.79 1016.85 1016.92 1017.00 1017.10 1017.20 1017.30 1017.41 1017.52 1017.62 1017.72
Thickness
5749 5759 5764 5767 5764 5759 5760 5753 5746 5757 5763 5783 5793 5797 5797 5796 5794 5792 5788 5786 5784 5780 5776 5772 5768 5765 5762 5758 5755 5752 5747 5741 5737 5733 5730 5726 5723 5721 5719 5716 5714 5712 5710 5708
5745 5755 5760 5761 5765 5764 5766 5762 5762 5768 5770 5790 5795 5795 5793 5792 5791 5788 5786 5784 5782 5778 5773 5769 5765 5762 5757 5754 5751 5748 5743 5738 5733 5729 5725 5721 5718 5715 5713 5710 5708 5706 5704 5702
5723 5744 5750 5741 5758 5762 5765 5767 5768 5765 5778 5788 5787 5790 5792 5791 5790 5788 5786 5783 5778 5774 5770 5766 5763 5759 5754 5750 5747 5743 5738 5734 5730 5726 5721 5717 5714 5710 5707 5704 5701 5699 5696 5695
5712 5727 5717 5741 5767 5770 5768 5770 5773 5778 5783 5785 5789 5792 5793 5793 5791 5788 5785 5780 5776 5771 5768 5765 5760 5756 5751 5746 5741 5738 5733 5729 5726 5722 5717 5712 5708 5704 5700 5697 5695 5692 5690 5688
5699 5706 5720 5744 5761 5763 5761 5762 5773 5775 5780 5782 5785 5785 5784 5790 5791 5789 5785 5781 5776 5772 5768 5762 5758 5752 5747 5742 5738 5734 5729 5725 5722 5718 5712 5708 5702 5698 5695 5691 5688 5685 5683 5681
5695 5701 5703 5734 5760 5767 5763 5752 5773 5775 5775 5776 5778 5768 5776 5788 5788 5785 5781 5777 5773 5769 5764 5758 5753 5749 5743 5738 5733 5729 5725 5721 5717 5713 5708 5703 5697 5692 5689 5685 5682 5679 5676 5673
5693 5699 5710 5738 5753 5759 5738 5746 5768 5771 5773 5774 5774 5778 5784 5786 5783 5780 5776 5772 5769 5765 5759 5753 5748 5744 5738 5733 5729 5725 5721 5716 5711 5707 5702 5697 5691 5687 5683 5679 5675 5672 5668 5665
5685 5692 5704 5738 5743 5741 5743 5757 5763 5766 5769 5771 5773 5778 5780 5779 5776 5773 5769 5766 5764 5758 5752 5747 5743 5738 5732 5727 5724 5720 5716 5710 5704 5700 5696 5691 5686 5681 5677 5673 5669 5665 5661 5658
5689 5697 5715 5726 5733 5742 5747 5751 5757 5760 5764 5767 5768 5770 5772 5770 5768 5765 5763 5760 5758 5753 5746 5741 5737 5734 5726 5722 5718 5714 5709 5702 5697 5692 5688 5684 5680 5675 5669 5665 5662 5658 5655 5651
5688 5700 5711 5720 5728 5736 5743 5747 5753 5757 5760 5762 5761 5763 5763 5762 5760 5758 5755 5753 5750 5745 5740 5734 5731 5728 5723 5717 5713 5707 5701 5695 5690 5685 5680 5676 5673 5668 5664 5660 5656 5652 5649 5645
5679 5692 5703 5713 5719 5726 5734 5742 5747 5750 5753 5754 5754 5754 5754 5752 5750 5750 5747 5745 5742 5739 5734 5729 5724 5720 5716 5711 5706 5700 5694 5689 5683 5678 5673 5669 5664 5660 5657 5653 5651 5647 5643 5639
5673 5686 5690 5698 5709 5718 5723 5729 5735 5738 5741 5744 5746 5745 5745 5743 5741 5740 5738 5736 5733 5730 5726 5721 5717 5712 5708 5704 5699 5694 5687 5681 5676 5671 5666 5662 5657 5651 5647 5645 5643 5640 5637 5633
5675 5683 5687 5695 5702 5709 5714 5720 5726 5729 5732 5733 5735 5736 5736 5733 5733 5732 5729 5727 5724 5721 5718 5714 5709 5704 5700 5696 5692 5688 5682 5676 5670 5665 5660 5656 5651 5647 5641 5636 5634 5631 5628 5625
5672 5677 5680 5687 5692 5699 5705 5711 5717 5720 5722 5724 5724 5726 5725 5723 5723 5722 5720 5718 5716 5713 5709 5705 5701 5696 5693 5690 5685 5680 5675 5670 5665 5660 5655 5650 5645 5641 5637 5633 5628 5623 5619 5616
5663 5669 5673 5678 5683 5689 5696 5700 5704 5706 5709 5711 5713 5714 5713 5711 5711 5712 5712 5710 5706 5703 5701 5698 5694 5690 5686 5683 5678 5673 5669 5663 5658 5653 5648 5643 5638 5634 5630 5625 5621 5616 5612 5608
5653 5659 5664 5668 5672 5678 5684 5689 5691 5694 5698 5700 5701 5701 5703 5702 5701 5701 5701 5701 5698 5695 5694 5691 5688 5684 5680 5676 5672 5667 5663 5658 5652 5646 5641 5636 5631 5627 5623 5618 5614 5610 5606 5602
5643 5647 5652 5656 5662 5667 5673 5678 5681 5684 5688 5690 5691 5692 5692 5691 5691 5691 5691 5691 5690 5689 5687 5685 5682 5678 5673 5670 5666 5661 5656 5651 5645 5640 5635 5630 5625 5620 5616 5611 5607 5603 5599 5595
5638 5641 5646 5650 5654 5658 5664 5669 5673 5676 5679 5681 5684 5683 5682 5682 5682 5682 5683 5682 5680 5679 5679 5678 5675 5670 5666 5663 5659 5654 5649 5644 5638 5633 5628 5623 5618 5613 5609 5604 5600 5596 5591 5587
5630 5634 5639 5643 5647 5651 5656 5661 5665 5668 5670 5673 5674 5674 5674 5674 5674 5674 5674 5673 5672 5671 5670 5670 5666 5663 5659 5655 5651 5647 5642 5636 5631 5626 5621 5615 5610 5606 5601 5597 5593 5589 5585 5580
5623 5627 5631 5635 5639 5643 5647 5651 5656 5659 5662 5664 5664 5664 5664 5664 5665 5665 5664 5664 5664 5664 5663 5661 5659 5655 5651 5648 5644 5639 5635 5630 5624 5618 5613 5609 5604 5599 5595 5591 5586 5582 5578 5574
5614 5619 5624 5627 5631 5636 5640 5643 5646 5650 5654 5654 5655 5656 5656 5655 5655 5655 5655 5655 5655 5655 5654 5652 5650 5647 5643 5640 5636 5632 5627 5622 5618 5612 5607 5602 5597 5593 5589 5585 5581 5577 5573 5569
5607 5612 5616 5620 5623 5627 5631 5635 5638 5642 5644 5645 5646 5647 5647 5645 5645 5646 5646 5647 5646 5645 5644 5643 5641 5639 5635 5631 5628 5623 5619 5615 5610 5605 5600 5596 5591 5587 5583 5579 5575 5571 5568 5564
5601 5605 5608 5612 5615 5619 5623 5627 5631 5634 5636 5637 5637 5638 5639 5638 5638 5638 5636 5636 5637 5636 5635 5634 5632 5629 5626 5623 5619 5615 5611 5607 5603 5598 5594 5589 5585 5581 5577 5573 5570 5566 5562 5558
5593 5597 5601 5604 5607 5610 5614 5617 5621 5623 5626 5627 5628 5629 5630 5630 5629 5629 5630 5628 5627 5626 5625 5623 5621 5618 5616 5613 5610 5607 5603 5599 5596 5591 5587 5583 5578 5575 5571 5568 5564 5561 5557 5554
5587 5590 5594 5597 5600 5603 5605 5608 5611 5613 5615 5617 5618 5620 5621 5622 5622 5621 5620 5619 5617 5616 5615 5612 5610 5608 5606 5604 5601 5598 5595 5592 5588 5584 5580 5576 5573 5569 5565 5562 5559 5555 5552 5549
5580 5583 5587 5590 5593 5596 5598 5600 5602 5604 5606 5607 5608 5609 5610 5611 5612 5611 5610 5609 5608 5607 5605 5602 5600 5598 5597 5595 5593 5590 5586 5583 5580 5576 5573 5570 5567 5563 5560 5556 5553 5550 5546 5543
5575 5578 5581 5583 5586 5589 5591 5593 5595 5596 5598 5599 5600 5600 5601 5602 5602 5601 5600 5599 5598 5597 5595 5593 5591 5590 5588 5586 5584 5581 5577 5574 5572 5569 5566 5563 5560 5557 5554 5551 5547 5544 5541 5537